Location: Newark
(12.4436°N, 0.6167°W)
Time: 06:30:29
(UTC+00:00)

Transit 2A - Pass Details

Date: 14 December 2019
Orbit: 601 x 958 km, 66.7° (Epoch: 27 January)

Event Time Altitude Azimuth Distance (km) Brightness Sun altitude
Rises 15:06:20 0° 5° (N) 2,976 8.7 31.6°
Reaches altitude 10° 15:09:10 10° 23° (NNE) 2,121 7.9 31.0°
Maximum altitude 15:12:33 19° 68° (ENE) 1,675 7.4 30.4°
Drops below altitude 10° 15:16:08 10° 112° (ESE) 2,278 8.3 29.6°
Sets 15:19:18 0° 130° (SE) 3,281 9.1 29.0°
